Location: ?????????
(41.1143°N, 22.7905°E)
Time: 14:59:51
(UTC+00:00)

S3M - Pass Details

Date: 13 December 2025
Orbit: 947 x 1004 km, 83.0° (Epoch: 19 January)

Event Time Altitude Azimuth Distance (km) Brightness Sun altitude
Rises 17:05:29 0° 171° (S) 3,712 7.1 -22.7°
Reaches altitude 10° 17:08:04 10° 166° (SSE) 2,763 6.3 -23.2°
Maximum altitude 17:14:12 54° 92° (E) 1,200 4.0 -24.3°
Enters shadow 17:14:35 53° 78° (ENE) 1,210 4.0 -24.4°
